This is the latest recevied weather packets stored in our database for station/object KC0AFB. If no packets are shown the sender has not sent any weather packets the latest 10 day(s).
| Time | Temp. | Humidity | Pressure | Rain* | Wind** | Luminosity | Snow |
|---|---|---|---|---|---|---|---|
| 1778148872 | -2.22° C | 72% | 1011.7 hPa | 0 mm | - | 0 W/m² | - |
| 1778148569 | -1.67° C | 72% | 1011.7 hPa | 0 mm | - | 0 W/m² | - |
| 1778148267 | -1.67° C | 71% | 1011.9 hPa | 0 mm | - | 0 W/m² | - |
| 1778147965 | -1.67° C | 71% | 1012 hPa | 0 mm | - | 0 W/m² | - |
| 1778147662 | -1.67° C | 70% | 1011.9 hPa | 0 mm | - | 0 W/m² | - |
| 1778147359 | -1.11° C | 69% | 1011.8 hPa | 0 mm | - | 0 W/m² | - |
| 1778147055 | -1.11° C | 69% | 1011.8 hPa | 0 mm | - | 0 W/m² | - |
| 1778146752 | -1.11° C | 69% | 1011.8 hPa | 0 mm | - | 0 W/m² | - |
| 1778146450 | -1.11° C | 69% | 1011.8 hPa | 0 mm | - | 0 W/m² | - |
| 1778146148 | -1.11° C | 69% | 1011.9 hPa | 0 mm | - | 0 W/m² | - |
| 1778145844 | -1.11° C | 69% | 1011.7 hPa | 0 mm | - | 0 W/m² | - |
| 1778145541 | -1.11° C | 69% | 1012 hPa | 0 mm | - | 0 W/m² | - |
| 1778145237 | -1.11° C | 69% | 1011.9 hPa | 0 mm | - | 0 W/m² | - |
| 1778144933 | -1.11° C | 68% | 1011.9 hPa | 0 mm | - | 0 W/m² | - |
| 1778144629 | -0.56° C | 67% | 1012.2 hPa | 0 mm | - | 0 W/m² | - |
| 1778144326 | 0° C | 66% | 1011.7 hPa | 0 mm | - | 0 W/m² | - |
| 1778144023 | 0° C | 67% | 1012 hPa | 0 mm | - | 0 W/m² | - |
| 1778143720 | -0.56° C | 67% | 1011.8 hPa | 0 mm | - | 0 W/m² | - |
| 1778143417 | -0.56° C | 68% | 1011.8 hPa | 0 mm | - | 0 W/m² | - |
| 1778143114 | 0° C | 66% | 1011.7 hPa | 0 mm | - | 0 W/m² | - |
| 1778142811 | 0° C | 66% | 1011.8 hPa | 0 mm | - | 0 W/m² | - |
| 1778142507 | 0° C | 66% | 1011.7 hPa | 0 mm | - | 0 W/m² | - |
| 1778142202 | 0° C | 66% | 1011.6 hPa | 0 mm | - | 0 W/m² | - |
| 1778141900 | 0° C | 66% | 1011.8 hPa | 0 mm | - | 0 W/m² | - |
| 1778141595 | 0° C | 67% | 1011.7 hPa | 0 mm | - | 0 W/m² | - |
* Rain latest hour (hover to see other rain measurements)
** Current wind speed in m/s (hover to see current wind gust speed)